Theta_e
308 310 309 311 311 309 311 311 311 312 312 312 311 310 310 312 305 301 314 319 314 317 323 326 328 330 330 330 332 335 336 337 338 339 339 339 336 338 340 339 342 343 343 344 346 347 349 350 350 352 355 358 359 360 362 363 363 363 363 360 359 360 362 361 359 360 365 358 356 356 360 362 362 361 359 355 354 356 355 350 349 350 351 348 348 349 350
308 309 308 311 311 310 309 311 311 313 313 314 315 313 313 311 311 314 316 317 319 323 325 328 328 330 331 331 334 334 334 335 336 336 336 337 338 339 339 340 340 340 342 343 345 346 347 347 347 348 349 352 354 355 357 359 361 360 360 359 359 358 358 359 362 364 364 361 357 356 356 356 359 358 359 361 360 358 357 355 355 353 355 352 349 348 349
308 310 311 310 309 308 308 308 309 310 312 311 312 314 312 312 315 317 318 318 319 326 330 329 330 330 331 332 331 331 332 333 332 331 331 332 333 336 337 338 338 339 340 340 340 341 341 343 343 344 346 350 351 352 353 355 357 358 358 357 358 357 357 360 359 361 362 359 357 355 356 357 354 357 358 359 359 358 356 356 357 358 357 351 351 351 350
304 308 309 309 310 309 306 308 309 310 309 310 311 312 314 314 312 315 316 313 316 325 331 330 329 328 327 326 327 328 329 330 329 328 328 329 330 332 334 336 337 337 338 338 339 340 340 339 338 338 339 342 346 350 352 354 356 358 358 357 357 358 360 358 357 356 360 358 356 356 353 355 358 359 362 363 362 360 356 356 358 357 356 350 350 352 355
301 308 308 308 307 306 304 304 307 312 313 312 313 313 315 318 317 314 311 311 321 326 328 325 325 325 325 326 326 327 328 329 328 327 327 328 329 331 333 335 336 336 337 338 338 339 341 341 339 339 340 340 341 343 346 352 356 357 356 357 357 357 358 358 359 356 354 358 360 358 356 356 358 361 359 358 360 359 358 356 354 353 353 354 354 356 357
303 304 309 310 304 296 299 314 317 314 311 314 312 314 318 320 323 317 319 321 327 327 326 324 323 323 324 325 328 330 329 327 327 327 327 328 330 332 333 334 335 336 337 337 338 339 339 340 340 341 341 342 343 346 346 347 351 354 355 356 356 357 357 357 357 357 358 358 359 361 360 359 355 353 356 357 358 359 356 355 353 350 353 352 354 357 357
301 305 306 301 295 297 312 315 318 317 314 313 312 315 318 320 323 323 322 324 328 327 326 325 327 327 327 328 328 329 330 329 327 325 325 325 327 330 333 334 334 335 336 336 337 338 338 339 341 342 341 342 344 346 348 347 349 352 354 354 354 356 355 354 356 355 356 357 356 356 357 357 355 355 352 355 357 359 358 356 353 350 350 349 355 355 353
305 302 303 296 297 309 315 314 317 317 315 315 314 314 317 320 322 325 324 321 325 326 326 327 329 329 329 329 329 329 330 330 329 327 326 326 327 328 332 334 334 334 335 336 337 338 340 340 340 341 341 342 342 344 348 348 350 351 352 352 351 351 351 352 352 352 353 352 353 353 353 354 354 354 355 356 353 352 353 352 352 353 352 351 351 353 354
299 301 300 299 308 306 311 311 312 312 312 314 310 306 312 323 324 327 327 326 326 326 326 327 327 329 328 326 326 332 331 331 331 330 329 328 327 328 332 333 333 335 336 336 338 340 341 341 340 341 342 342 341 341 341 343 344 344 344 343 344 345 347 348 349 350 351 349 351 351 352 353 353 352 351 351 349 350 349 350 352 351 348 348 349 351 352
304 300 298 299 300 297 306 312 317 317 317 316 317 316 312 320 324 329 328 327 326 326 327 327 328 329 324 319 320 327 330 332 332 332 332 330 330 330 332 333 333 335 335 335 336 338 340 339 340 341 342 342 340 339 339 340 341 340 341 341 342 342 343 346 348 349 349 349 347 347 347 347 346 346 348 348 347 349 348 349 348 349 348 346 345 346 347
303 300 297 296 296 299 308 312 314 317 318 316 319 310 306 319 324 328 328 326 326 325 325 326 328 325 320 319 322 327 330 330 331 330 330 330 328 329 331 332 331 332 333 333 334 337 338 338 341 341 342 342 341 340 340 340 340 340 339 340 341 343 345 347 347 346 345 345 346 345 343 344 346 346 346 345 347 348 348 348 345 344 343 341 340 341 342
302 301 298 297 301 301 311 313 313 316 317 316 313 300 301 319 324 327 328 326 326 327 327 329 328 324 318 319 323 328 329 329 329 329 329 329 328 327 329 330 332 332 334 333 333 334 334 336 338 339 339 339 340 340 340 341 340 339 339 340 341 343 343 344 345 346 345 345 346 344 344 346 345 345 346 346 346 344 343 344 341 340 339 338 336 337 338
301 300 299 301 303 312 315 314 316 316 317 313 303 297 310 322 325 326 329 328 328 329 328 327 323 327 327 328 330 331 331 330 329 329 330 329 327 325 326 328 332 329 328 328 329 331 334 337 337 337 337 336 336 339 340 340 339 340 343 344 345 346 345 344 344 345 346 345 344 344 344 343 344 345 347 345 343 342 339 338 336 335 333 331 330 330 331
300 301 299 299 304 313 315 315 315 318 313 301 299 313 323 323 323 327 326 328 329 327 331 330 328 329 331 331 331 330 329 328 327 328 328 325 323 325 327 329 328 326 325 327 327 328 330 334 335 335 335 334 335 335 335 335 338 341 342 343 343 343 343 343 344 344 344 346 346 345 345 344 342 342 343 341 340 339 338 336 333 331 330 328 326 325 325
303 303 300 296 292 312 318 317 314 318 307 309 317 323 323 324 323 325 324 328 328 328 330 330 332 331 330 330 329 329 329 329 327 326 324 322 321 321 323 324 325 325 326 326 325 326 326 329 331 333 333 333 333 333 332 334 336 338 339 340 340 341 341 341 341 342 343 343 342 342 342 342 342 340 340 339 340 339 336 334 332 331 330 329 328 328 327
299 299 297 296 311 314 319 315 309 317 320 321 323 322 324 322 323 322 327 328 329 328 327 325 328 330 329 329 329 328 328 325 324 324 323 322 322 322 321 322 323 325 326 326 327 328 327 329 330 332 333 332 332 332 331 334 334 334 333 332 334 333 334 336 337 338 339 339 341 341 341 340 340 338 337 337 337 337 336 334 332 331 331 330 330 329 329
304 302 306 312 318 318 318 319 322 325 326 326 324 325 323 324 326 327 326 327 329 331 328 327 327 328 330 329 328 326 324 320 319 318 319 321 323 323 322 322 324 324 322 322 324 327 329 331 332 333 332 331 331 330 331 333 332 331 331 331 329 327 326 326 328 331 334 336 337 337 338 337 338 337 337 337 335 337 337 334 334 332 332 333 332 331 329
313 315 316 321 318 317 318 318 325 324 325 325 326 324 323 326 326 326 326 326 329 331 330 327 327 328 329 327 326 324 321 319 319 320 319 320 321 320 321 322 323 324 324 325 324 323 326 328 330 332 331 331 331 332 332 332 333 332 333 332 329 327 325 324 323 324 325 326 330 334 335 335 335 335 335 333 335 336 336 335 334 332 331 332 331 332 329
306 300 316 313 316 319 317 320 324 328 327 328 329 327 329 330 329 327 328 328 329 332 328 326 328 329 329 327 325 322 321 319 319 317 318 320 321 322 321 322 322 321 321 321 322 323 324 326 328 330 332 332 332 332 333 330 331 334 333 331 330 329 327 323 324 324 323 321 323 327 330 330 330 331 333 333 331 332 333 331 331 330 330 328 325 323 322
306 308 315 316 320 322 320 321 323 322 326 327 329 332 332 331 331 331 328 328 329 330 329 328 326 326 326 324 319 318 318 319 321 322 322 322 322 323 323 323 324 323 323 322 322 323 324 326 327 327 329 332 334 334 331 329 331 333 332 331 328 327 326 327 327 326 322 321 319 318 323 328 329 329 328 328 329 329 328 328 326 323 322 322 322 323 324
310 314 318 319 320 320 320 321 323 326 327 329 329 330 331 330 330 330 332 328 328 328 329 329 326 325 324 321 319 318 320 321 322 322 322 324 325 326 327 327 328 327 327 326 326 324 324 324 325 326 327 326 328 331 333 335 336 333 332 331 330 327 326 325 324 326 324 323 320 318 319 322 322 321 322 325 324 322 320 318 317 322 325 322 322 323 325
305 306 312 315 308 309 315 318 323 328 331 330 330 330 330 330 329 329 328 330 330 330 330 330 329 327 324 322 322 320 320 320 321 323 324 326 327 328 329 330 330 330 330 330 329 328 328 329 328 328 327 328 330 329 332 335 336 335 334 331 329 325 326 325 325 324 323 324 326 323 319 318 320 319 312 303 310 323 319 312 302 297 305 319 318 324 319
304 310 315 319 317 316 320 321 324 330 331 330 329 329 329 330 330 330 329 329 330 330 329 331 329 327 324 323 322 321 321 323 323 324 325 326 327 328 330 330 331 331 332 332 332 331 331 331 330 330 330 329 330 330 332 334 334 335 334 332 330 328 325 324 326 327 325 324 326 329 325 323 322 322 321 320 298 296 305 306 300 295 294 295 299 303 321
312 316 319 319 317 314 321 324 328 328 330 328 328 329 330 330 330 330 330 330 329 329 329 330 329 326 323 323 322 323 324 324 325 326 327 327 329 329 329 330 331 331 331 332 332 332 332 332 332 332 330 331 331 330 330 330 332 334 334 332 329 328 329 329 329 328 326 328 327 328 329 329 327 325 323 321 320 303 295 300 300 295 295 294 294 297 298
313 317 319 322 320 320 326 328 328 328 328 328 326 328 328 329 329 330 329 329 329 328 327 327 328 327 324 323 324 324 324 325 326 327 328 329 328 327 327 328 330 330 331 331 332 332 332 331 331 330 331 330 332 331 332 331 330 328 329 331 331 330 331 331 330 330 328 329 330 329 327 329 328 329 326 324 320 320 322 298 295 295 295 295 294 294 296
319 319 321 323 322 322 327 325 324 326 326 327 327 328 329 330 329 329 329 330 328 329 329 329 328 327 326 326 325 325 326 326 328 329 328 328 327 328 329 330 331 332 331 332 330 330 330 330 329 328 329 329 331 331 329 331 331 330 329 329 327 327 329 329 329 328 328 328 329 329 331 331 330 328 329 328 327 323 322 320 318 309 300 296 296 298 293
322 322 322 321 317 321 323 320 320 325 325 327 327 328 329 330 331 329 330 330 330 330 329 329 330 328 327 327 327 327 328 329 329 329 330 327 328 329 329 331 331 332 331 332 332 330 329 329 328 328 327 326 329 329 330 330 331 330 330 329 329 322 319 323 331 330 328 327 327 328 328 329 328 328 328 327 327 327 326 324 324 323 322 322 303 294 314
321 326 324 316 315 319 320 323 326 325 326 326 328 327 328 329 328 328 327 328 330 331 331 331 328 328 327 327 327 327 328 327 327 329 329 329 329 330 332 333 332 331 330 330 329 329 329 328 326 325 326 327 327 327 326 327 329 329 329 328 328 328 327 327 328 327 328 328 325 325 327 327 328 327 327 327 325 326 324 325 325 324 325 324 322 308 298
323 325 324 321 324 324 324 325 326 325 325 327 327 327 326 324 325 325 326 327 330 331 330 331 331 330 328 327 327 327 326 326 327 328 328 330 331 330 331 330 329 327 326 325 325 326 325 325 325 323 323 325 325 324 322 322 323 324 326 325 326 325 323 325 326 326 326 328 328 329 325 325 326 326 326 326 326 325 325 324 324 325 324 327 323 318 315
319 324 322 321 323 323 323 322 322 323 322 325 324 324 324 324 325 326 327 329 331 329 331 331 330 329 330 327 328 327 326 326 327 329 329 329 328 328 327 326 324 323 323 323 323 323 323 322 322 321 320 321 323 323 322 322 321 324 323 322 321 324 327 328 330 328 327 326 323 323 324 326 327 325 324 325 325 324 324 324 324 323 323 326 325 323 323
321 324 323 323 325 324 322 323 324 323 324 325 325 324 323 324 324 327 329 330 332 331 332 331 330 329 328 328 329 329 328 329 329 328 325 324 324 324 322 323 320 319 320 320 320 320 319 319 320 321 320 319 318 323 323 321 323 321 322 322 324 324 323 323 324 325 326 324 323 324 324 323 323 323 322 322 322 322 322 322 322 322 322 323 323 322 323
318 317 322 325 325 322 322 324 323 322 323 324 323 322 322 323 324 324 328 330 331 332 333 332 332 330 330 332 331 328 329 328 326 324 322 322 323 324 324 322 321 320 319 320 320 319 320 320 321 321 322 322 320 321 322 323 323 320 322 321 320 324 323 323 324 324 325 323 323 322 323 320 321 321 322 321 320 320 321 321 320 321 320 320 321 322 322
318 315 315 320 324 323 322 324 322 322 324 323 323 324 325 324 325 325 324 328 330 332 332 332 333 332 333 332 330 327 327 324 323 322 322 323 323 323 323 322 323 323 322 321 321 320 319 321 320 321 322 321 321 320 321 320 323 321 321 321 320 322 321 323 320 319 321 321 321 320 322 322 321 322 323 322 321 320 320 320 319 319 320 321 320 325 322
320 319 320 321 319 320 323 324 324 324 325 325 325 325 325 326 327 326 326 329 328 329 332 332 333 334 333 330 327 326 322 320 318 319 321 323 324 324 324 323 324 324 324 322 321 321 322 321 321 323 321 321 320 319 321 321 322 322 323 322 321 320 320 320 324 322 320 320 321 322 324 324 323 322 321 320 320 320 320 320 320 319 320 319 320 323 309
324 324 325 324 323 321 322 324 325 326 325 325 324 325 327 328 327 326 326 326 328 332 333 333 332 332 332 326 324 321 319 318 319 321 322 323 324 326 325 324 325 325 323 322 321 321 322 322 323 322 318 321 321 321 321 322 321 321 322 321 321 319 320 319 317 318 318 319 321 321 322 321 320 321 321 321 320 321 319 318 318 318 318 318 319 322 321
328 326 324 323 323 321 324 326 324 325 326 326 326 326 327 327 327 327 326 327 327 330 332 333 331 331 328 325 321 318 318 319 321 322 323 323 325 325 325 324 323 320 320 320 321 322 323 323 319 317 315 318 318 321 321 318 319 321 322 317 318 318 320 319 319 319 319 320 319 318 318 319 318 319 318 319 319 319 317 318 316 318 317 317 318 319 322
324 324 324 322 324 325 325 328 329 328 326 325 326 327 327 328 327 328 327 328 328 328 329 329 328 326 325 322 320 319 320 321 321 322 322 324 324 325 323 323 320 320 319 316 320 322 322 323 319 315 316 319 320 320 322 318 319 321 320 319 318 319 318 317 318 319 318 319 318 318 318 317 318 316 318 316 316 317 317 317 316 317 316 317 318 320 319
323 324 327 327 327 329 328 327 330 330 327 327 328 329 328 327 328 328 327 327 327 327 328 328 327 326 322 320 321 320 321 322 322 323 325 325 325 324 322 320 318 319 316 317 322 323 322 323 318 317 320 319 318 318 321 318 319 317 319 316 315 316 315 315 315 317 316 316 317 316 315 315 315 315 315 315 315 316 315 317 316 316 316 317 317 318 318
322 322 326 328 330 329 328 326 328 329 328 328 329 329 329 329 330 328 326 327 328 328 328 327 326 322 320 320 320 320 321 322 323 324 324 324 324 322 320 320 320 323 324 325 325 323 324 322 322 320 319 318 318 317 319 317 317 317 318 317 316 317 316 316 314 314 315 316 314 314 315 314 314 314 314 314 316 316 316 316 315 315 315 315 316 316 317
325 324 325 326 328 329 326 327 325 326 329 329 330 329 330 329 328 327 326 326 328 330 328 327 323 319 320 320 320 321 323 324 324 324 324 324 324 322 321 320 326 326 325 320 320 321 322 318 317 318 317 318 319 318 320 315 316 317 318 315 316 314 314 314 312 313 315 314 315 314 314 315 314 314 313 314 314 314 315 316 315 316 316 316 317 316 316
324 323 325 329 329 328 328 331 329 331 328 332 331 332 331 329 328 326 326 327 328 328 327 325 322 319 320 320 321 323 324 323 324 324 325 324 322 320 316 315 324 324 321 320 321 321 319 319 318 317 317 317 318 318 317 316 313 317 315 314 313 313 313 314 313 313 313 313 313 312 312 313 312 312 313 313 313 313 314 313 313 314 314 314 314 314 314
325 326 325 322 325 325 326 329 327 329 331 332 333 333 331 330 328 327 328 329 329 328 327 326 323 322 322 322 322 323 323 324 324 324 324 323 321 318 315 316 322 323 321 320 319 317 315 315 316 314 317 317 317 314 315 316 316 314 313 313 314 314 313 312 313 312 313 313 312 312 313 312 311 311 311 312 312 312 312 312 312 312 312 312 312 313 312
326 324 324 323 328 328 329 331 331 330 329 329 332 333 331 331 330 330 329 330 329 327 326 326 324 324 323 323 323 322 322 323 323 323 323 323 324 324 322 321 321 320 318 318 319 317 317 317 316 315 317 317 315 314 315 313 315 313 313 313 313 312 312 312 311 312 311 311 311 312 312 311 311 311 311 310 310 311 311 311 311 311 311 311 311 311 311
325 321 323 327 330 331 332 332 332 331 327 328 332 334 334 333 333 331 330 331 328 326 326 325 324 324 323 323 322 321 321 322 322 321 321 319 320 323 324 321 321 318 317 316 316 315 316 316 317 316 315 315 313 313 314 314 313 312 312 312 311 312 312 312 311 311 310 310 310 310 311 310 310 310 310 309 309 310 310 310 310 311 310 310 310 310 310
320 325 329 330 332 333 331 329 332 331 331 333 333 331 331 331 331 333 332 330 327 327 326 325 325 324 323 322 322 322 322 323 323 321 318 316 315 316 320 319 319 317 316 316 316 316 316 316 315 315 314 313 312 312 314 314 312 312 312 311 312 312 311 311 310 311 310 311 311 310 310 311 310 309 310 309 311 307 308 308 309 308 308 308 308 308 309
328 328 328 327 331 329 332 334 333 334 334 333 332 331 332 330 330 330 329 330 330 328 328 328 327 326 324 323 323 323 324 323 323 323 322 320 318 319 319 317 317 315 315 315 315 315 316 314 314 314 313 313 311 313 313 313 312 311 311 311 311 310 310 311 311 312 311 311 311 310 310 311 310 309 309 308 308 307 307 306 305 307 308 308 307 306 306
327 325 326 330 332 332 334 334 335 334 333 331 329 329 331 332 329 328 329 331 330 329 330 329 327 326 326 325 323 322 320 320 321 321 322 321 319 319 317 317 317 314 313 313 314 316 316 314 313 313 312 312 312 313 313 312 312 312 311 311 312 312 311 311 312 312 310 310 309 309 307 308 308 309 310 309 308 308 307 307 307 308 307 308 308 307 307
323 320 321 328 331 332 334 334 332 330 330 329 329 330 331 332 330 330 330 330 329 328 327 327 325 325 326 326 327 325 323 321 317 317 319 318 318 318 316 316 315 315 313 315 314 315 314 313 312 311 311 311 311 312 313 312 311 311 311 312 312 312 311 311 310 311 309 307 307 311 310 309 308 309 308 308 308 307 307 306 306 306 307 307 306 307 307
328 326 326 329 331 333 333 330 327 327 327 329 330 329 329 328 328 328 327 327 327 326 324 325 326 326 326 323 323 321 321 320 318 316 317 317 316 316 314 315 314 313 312 314 314 315 313 312 311 310 310 311 311 313 312 311 312 312 311 311 312 310 310 310 310 310 310 309 308 307 308 308 308 309 308 307 307 308 307 307 308 308 306 306 306 308 306
331 331 331 332 332 331 330 326 324 325 328 329 328 328 328 327 324 324 325 325 323 322 323 322 322 321 320 319 319 319 320 319 320 320 318 317 316 318 316 315 313 312 313 314 314 314 312 312 311 311 310 311 312 312 313 312 312 311 311 311 310 309 310 309 307 306 308 309 308 307 307 306 307 308 306 305 305 307 307 307 308 309 306 307 305 305 306
330 329 327 323 323 323 323 325 327 328 329 328 328 327 325 324 323 322 323 322 322 320 319 319 319 319 318 317 317 318 318 318 318 318 316 316 317 316 315 316 312 311 313 313 313 313 314 313 313 311 310 311 312 312 312 312 311 310 309 309 309 311 308 307 306 307 308 309 310 309 308 308 308 309 308 307 307 306 307 307 307 307 307 307 307 307 306
330 328 328 327 325 324 325 325 326 327 326 326 328 326 322 322 322 320 320 320 319 318 318 317 315 316 316 316 316 315 315 316 316 315 315 315 314 314 314 314 312 311 313 313 313 314 314 312 312 311 310 311 312 312 311 309 310 310 309 311 312 311 310 309 309 309 310 309 307 308 308 308 309 308 308 308 307 307 307 307 308 307 306 306 307 307 306
Wind_Speed
6 7 5 3 5 10 3 2 5 8 11 9 14 11 8 5 8 4 8 11 12 8 7 7 7 8 8 9 8 8 7 7 7 9 10 10 10 8 9 10 11 10 9 7 8 7 7 7 6 5 2 3 2 3 4 4 5 7 6 3 4 5 6 7 7 6 4 5 7 6 4 4 4 3 0 2 4 11 14 12 10 10 11 11 10 10 10
5 3 7 2 5 11 9 11 9 15 12 16 16 12 3 6 8 5 10 5 10 8 8 8 8 8 7 7 7 7 10 10 10 13 13 12 12 12 12 12 11 10 10 10 10 9 9 8 7 6 3 1 1 3 4 4 5 5 4 5 6 8 9 7 5 6 6 4 3 2 4 5 5 4 3 2 2 2 1 11 15 9 8 9 10 10 9
3 5 5 4 8 7 14 11 9 10 6 2 4 7 3 2 5 10 9 9 6 6 9 10 9 9 7 9 10 10 10 11 12 12 12 11 11 12 11 12 11 10 10 9 8 9 8 8 7 6 6 5 3 5 2 3 4 4 5 4 6 7 8 6 3 6 5 4 6 7 3 3 3 4 5 4 2 2 3 3 2 8 13 10 9 10 9
4 4 7 10 10 13 11 15 13 10 8 8 2 3 5 1 3 10 10 4 3 5 7 9 10 10 9 11 10 9 9 11 11 12 11 11 11 11 10 10 10 10 10 9 8 8 7 6 6 5 5 5 5 2 4 5 5 5 7 8 7 7 5 7 6 6 6 6 5 4 6 7 7 7 6 5 5 4 2 3 1 2 4 5 9 10 10
5 10 16 11 12 13 13 6 10 17 4 6 5 4 2 7 7 5 7 6 8 10 10 10 9 10 9 9 8 8 11 11 11 12 11 11 10 10 10 10 10 10 9 9 8 7 6 6 5 5 3 3 3 5 5 5 5 5 7 7 7 7 7 7 6 9 9 8 7 8 7 7 7 6 6 7 6 5 4 2 1 1 2 3 3 3 3
4 7 16 14 10 11 7 5 7 5 2 5 1 1 3 7 5 4 1 1 7 11 11 10 10 11 9 10 9 9 8 9 11 11 10 10 9 9 9 9 9 9 8 8 8 8 7 6 5 4 3 2 2 3 4 5 5 5 5 5 6 5 5 6 6 5 3 4 5 6 6 6 5 4 6 6 6 5 3 3 3 3 3 1 1 1 5
7 5 9 4 11 4 5 6 1 6 6 8 11 2 3 1 5 10 6 9 8 10 10 10 12 13 13 11 11 11 10 10 10 10 10 9 9 9 8 9 9 9 8 8 7 7 7 6 5 4 3 3 2 2 2 3 4 4 3 3 2 2 2 2 1 3 3 2 3 4 4 4 4 4 6 6 6 4 3 3 4 4 3 4 3 4 4
7 9 6 9 2 6 6 5 3 2 4 5 7 7 3 1 1 9 10 10 10 11 11 11 12 14 14 12 11 11 10 8 8 9 9 10 9 8 6 9 9 8 8 8 8 7 6 5 5 4 4 4 4 3 3 6 7 7 6 5 4 3 2 3 4 3 3 3 2 3 4 4 6 6 4 2 0 3 3 4 4 5 4 4 3 3 4
9 6 9 7 4 3 7 6 6 5 3 4 7 6 5 2 1 5 7 9 10 12 11 12 13 13 11 11 9 9 11 11 10 10 10 9 9 8 7 10 9 8 7 7 7 7 7 7 6 6 5 6 7 8 9 8 9 9 9 9 8 8 8 7 6 4 3 2 2 3 4 6 6 5 4 4 5 3 2 3 3 5 5 4 3 5 6
7 8 7 7 6 7 3 5 6 4 3 2 3 4 1 4 4 3 7 10 9 10 11 11 13 13 11 10 8 7 9 10 10 10 9 9 8 8 8 10 8 8 7 6 6 8 10 8 7 6 6 7 8 8 9 9 9 10 10 9 8 7 7 6 5 5 6 8 9 7 6 3 5 5 5 4 3 2 3 4 4 4 5 6 7 6 6
4 6 8 7 8 2 2 1 6 3 2 4 4 5 6 4 7 5 6 9 9 9 10 11 10 8 6 8 9 6 7 8 9 9 8 9 8 9 8 10 9 8 8 7 6 10 11 10 9 9 9 9 9 10 9 9 9 10 9 8 7 7 8 8 8 8 9 8 7 7 8 6 4 5 4 4 5 4 5 4 5 4 5 7 8 6 6
8 8 7 7 6 1 6 7 8 4 1 3 6 8 4 4 5 5 6 8 8 7 8 8 6 2 4 7 9 10 9 8 8 7 7 9 9 9 9 9 11 10 8 7 8 10 11 10 10 11 11 10 10 10 10 10 10 10 9 8 6 6 7 8 7 8 8 7 7 8 6 6 6 6 5 4 6 6 6 6 6 6 6 6 7 7 7
9 8 8 8 2 4 6 7 3 4 2 2 8 5 5 4 4 4 6 7 8 7 7 5 2 5 5 9 12 11 9 9 9 9 8 8 8 9 9 9 8 8 8 8 8 10 9 9 10 9 9 10 10 8 10 11 11 11 9 9 9 9 9 9 9 9 8 9 8 8 8 7 5 5 6 6 8 8 8 8 8 8 9 7 7 8 8
9 7 7 7 2 4 2 1 5 4 4 7 4 6 1 6 4 5 3 6 9 7 6 6 6 7 12 14 12 11 10 9 9 8 8 8 9 10 9 7 8 9 9 9 10 10 9 10 10 9 9 10 9 10 11 12 11 10 10 10 10 10 10 11 11 10 9 9 10 10 9 8 8 9 8 8 8 8 8 8 9 9 8 7 8 8 7
7 7 6 4 6 4 4 3 2 4 9 7 1 6 9 8 5 6 4 4 7 4 4 9 8 11 12 13 13 11 10 10 9 9 9 9 9 9 8 8 9 8 9 10 10 11 10 10 9 9 10 10 10 10 11 11 10 10 10 9 9 8 9 10 10 10 10 10 9 8 9 9 10 9 8 9 9 9 9 8 8 8 8 7 7 6 5
8 7 7 1 3 3 3 3 4 4 7 10 8 6 7 6 4 4 5 9 9 9 6 9 9 9 11 11 11 10 10 10 10 10 9 9 9 9 10 10 10 10 10 10 10 11 10 9 10 9 10 10 10 10 11 9 8 8 8 8 8 9 9 9 9 10 9 9 9 9 10 9 10 9 9 9 8 7 7 7 7 7 6 6 6 6 5
6 4 2 5 4 3 2 1 5 8 7 4 6 4 4 5 3 2 1 5 6 4 9 11 10 10 9 11 10 9 10 10 10 10 10 10 9 10 9 9 9 9 10 11 11 11 10 10 9 9 9 9 10 10 8 8 8 8 8 8 8 8 8 8 8 8 8 7 7 7 8 8 7 7 8 7 7 6 6 6 6 6 5 5 5 4 2
1 1 0 4 4 3 1 3 3 4 9 7 7 6 7 6 5 7 4 5 5 5 9 9 8 9 10 10 9 10 10 10 10 10 10 10 11 11 11 10 9 9 9 9 10 11 11 11 9 8 8 8 9 8 7 6 7 7 7 7 7 8 7 7 7 7 8 8 7 7 6 6 6 5 5 5 5 4 4 5 4 4 3 3 2 1 2
1 4 8 8 5 4 6 4 4 2 5 7 10 10 9 12 15 11 9 7 8 7 10 11 9 9 9 10 8 9 9 10 10 11 10 10 9 9 10 9 9 9 9 10 9 10 10 8 8 8 7 7 7 6 6 6 6 5 5 6 6 6 7 8 8 8 8 6 6 6 6 5 6 5 4 4 4 3 3 3 3 4 3 3 2 2 3
6 3 2 3 3 0 1 3 5 5 4 4 2 4 5 5 7 15 10 9 6 7 9 12 11 10 9 10 11 10 10 9 9 9 9 10 10 9 9 8 9 9 9 9 10 9 8 8 8 8 8 8 8 8 8 7 6 5 5 5 6 6 6 5 5 6 7 8 7 7 7 8 8 7 6 6 6 6 7 6 4 4 4 4 4 4 5
6 4 4 2 2 3 4 4 3 3 5 5 5 5 5 6 6 9 12 13 9 9 11 13 13 12 12 12 12 12 11 10 10 10 10 10 9 9 9 9 9 8 9 9 9 9 9 8 8 8 8 8 8 7 7 6 5 5 4 3 3 4 4 5 5 4 5 6 7 7 8 9 9 8 7 7 6 7 8 6 6 5 3 5 5 5 6
8 6 6 6 6 6 6 7 5 7 7 6 7 6 7 7 7 8 9 12 14 12 12 11 13 13 12 13 12 13 11 11 12 12 11 10 10 10 9 9 9 9 9 9 9 9 8 7 7 7 8 7 7 7 6 5 5 4 4 4 4 6 6 6 5 4 5 5 5 6 7 7 8 7 9 10 9 6 6 7 9 9 9 7 5 5 7
6 3 6 7 6 4 2 6 7 8 7 7 7 8 8 8 8 8 9 10 9 11 12 11 12 12 12 13 12 12 11 12 11 11 11 10 9 9 9 9 9 9 8 8 8 8 7 7 7 7 7 6 6 6 5 5 5 4 3 2 1 4 5 5 5 5 4 5 5 5 6 7 7 7 6 7 10 10 8 6 7 9 10 9 11 11 5
4 2 1 6 5 5 4 7 9 7 6 7 8 7 8 8 9 9 9 10 11 11 11 11 11 12 13 13 12 12 12 12 12 11 10 10 9 9 8 8 8 8 8 7 7 7 6 6 6 6 7 6 5 6 5 5 5 5 5 4 4 5 4 4 2 3 4 4 4 4 4 4 5 5 5 6 4 5 7 8 8 8 10 10 10 10 11
5 3 4 5 6 4 4 9 7 7 7 7 8 9 9 10 9 9 10 10 10 12 11 11 12 11 12 12 11 11 11 11 11 10 9 8 8 8 8 9 8 7 7 7 6 6 6 5 5 5 5 5 4 4 5 5 4 5 4 4 4 2 2 1 2 1 2 3 2 2 3 3 3 4 4 4 5 4 2 3 5 6 8 7 6 7 8
3 4 5 6 5 4 7 7 8 8 9 9 9 9 9 8 9 10 10 10 10 10 10 11 12 12 11 10 11 11 11 10 10 10 8 7 7 6 7 8 7 6 6 6 5 5 5 5 5 5 5 6 5 4 3 4 3 4 4 4 4 5 4 3 3 2 2 1 1 2 0 1 0 1 1 1 3 3 4 5 2 1 1 2 3 2 4
6 6 7 7 8 8 9 8 8 10 10 10 10 11 10 10 9 9 9 9 10 10 10 11 11 11 10 10 11 10 10 10 9 8 7 7 7 6 6 6 6 6 6 6 6 5 5 5 5 5 6 6 6 5 5 4 2 2 2 2 1 5 2 4 2 0 0 1 1 1 1 1 1 2 1 2 1 3 4 3 4 3 4 3 2 4 2
8 6 8 7 7 8 9 8 10 10 10 11 11 12 12 11 10 11 11 11 10 10 10 11 12 11 10 10 11 11 11 11 9 8 7 7 7 6 6 6 6 5 6 5 6 4 5 6 6 4 4 5 5 5 5 4 5 4 3 3 4 3 3 4 4 2 0 2 1 2 2 1 2 5 2 5 5 5 3 2 3 2 2 3 4 5 2
8 8 7 7 6 7 8 7 10 10 11 11 11 11 12 12 12 12 12 11 11 11 10 10 10 10 10 11 10 10 10 10 9 8 7 7 6 7 7 7 7 7 6 5 5 5 5 4 4 4 4 3 3 5 5 5 4 4 4 5 6 5 4 1 1 4 3 2 1 3 3 4 4 3 4 4 4 4 3 2 2 4 2 4 5 3 2
12 9 10 9 8 9 11 11 11 12 11 12 12 12 12 12 11 11 11 12 12 11 11 11 11 10 10 10 10 10 10 10 10 9 9 7 7 6 6 6 6 6 5 5 5 4 4 3 3 2 3 3 4 3 4 4 3 2 3 4 5 5 2 6 5 4 2 3 0 5 4 4 4 4 4 4 3 4 5 4 3 3 5 4 4 4 4
7 7 10 10 11 12 13 12 12 12 12 13 13 12 13 12 12 11 11 11 10 10 12 11 11 11 11 10 9 8 8 9 9 9 9 8 7 7 6 5 4 4 4 5 3 3 2 2 2 3 3 5 5 3 2 3 3 3 4 4 3 7 5 4 4 5 6 6 5 4 4 4 5 5 5 4 5 5 5 5 5 4 5 4 5 5 4
7 7 12 8 10 13 12 12 12 13 13 13 13 13 13 13 13 13 13 11 11 11 12 12 12 12 10 10 10 9 9 10 10 10 9 9 8 7 6 5 6 6 5 4 3 2 2 2 2 2 2 3 4 3 3 3 3 3 4 3 4 3 4 2 5 5 6 5 6 6 5 5 4 4 5 5 6 5 5 5 6 5 6 6 6 6 1
7 10 11 13 11 12 13 13 13 14 14 15 13 11 11 11 11 12 13 12 11 11 12 12 11 11 11 10 11 11 11 10 10 10 9 9 8 7 7 6 6 5 5 4 3 3 1 1 3 3 3 4 4 4 4 4 2 4 3 5 4 5 2 5 3 5 4 5 5 5 5 5 5 5 6 5 5 5 6 6 7 7 7 6 5 7 7
7 8 11 14 16 14 14 14 13 13 13 13 12 12 12 11 10 10 11 12 12 12 12 12 12 11 11 11 12 12 12 11 10 9 9 9 8 7 7 6 6 5 4 4 3 2 3 3 2 2 3 3 5 4 3 3 3 3 2 3 4 3 3 3 6 4 3 4 4 3 3 4 5 5 5 5 6 6 5 6 7 7 8 7 4 6 6
10 13 12 12 15 17 17 15 14 13 13 13 13 12 11 11 11 10 10 12 13 12 11 12 12 12 12 12 13 13 12 11 10 10 10 9 8 7 6 6 6 5 4 2 2 1 3 1 2 3 4 2 2 4 3 4 4 4 1 3 2 2 1 2 3 3 4 5 4 4 4 4 3 4 4 4 5 6 6 5 6 6 7 7 6 3 4
10 12 13 13 12 16 16 15 17 18 16 14 14 13 13 12 12 12 13 12 11 12 11 11 12 12 12 12 12 12 12 11 10 10 9 9 8 7 6 6 5 3 3 4 3 1 2 2 7 5 4 4 3 3 5 6 5 4 4 3 5 4 2 2 3 4 3 3 4 4 4 3 4 4 4 5 5 6 6 7 6 5 5 6 6 3 1
13 14 14 14 12 13 11 7 11 13 13 13 13 13 14 14 13 12 13 11 11 12 12 11 12 12 12 12 11 11 10 9 9 9 8 8 8 7 6 5 5 4 3 4 5 5 3 4 7 1 4 3 2 3 3 4 4 5 4 5 5 6 2 3 1 1 2 1 4 4 3 4 6 4 3 3 4 3 4 5 6 5 3 3 4 3 2
11 12 12 11 10 8 7 8 11 10 10 12 13 13 14 13 12 13 13 12 12 12 12 12 13 12 12 11 11 11 10 9 9 9 9 8 8 7 7 5 5 5 5 3 6 6 3 8 7 1 3 3 2 2 6 7 6 6 6 4 3 5 3 4 3 3 3 2 3 2 4 5 5 5 5 5 4 4 4 5 5 5 6 4 2 3 3
8 9 9 8 8 10 11 11 12 10 11 15 13 13 13 14 14 14 13 13 12 12 12 12 12 12 12 12 10 10 9 9 9 9 9 9 8 7 6 5 1 4 7 6 6 3 6 3 1 2 2 2 3 5 2 3 5 6 4 4 4 3 4 3 3 2 3 4 5 4 5 6 5 5 4 4 4 4 4 3 4 6 5 4 4 3 2
6 8 12 12 9 7 11 14 14 14 15 15 14 14 14 14 14 14 13 13 12 12 12 12 13 12 12 12 10 10 9 9 8 9 9 8 7 6 5 5 9 7 7 6 1 2 7 6 3 4 3 1 2 3 4 1 6 6 7 3 3 3 2 2 2 4 4 3 3 3 4 5 4 4 4 5 5 2 1 2 3 3 4 3 3 2 3
9 11 11 10 10 11 12 11 12 13 13 13 12 12 13 14 14 13 14 13 13 13 12 12 12 11 12 11 11 10 9 8 8 8 8 7 7 6 6 5 9 7 5 2 3 7 5 3 4 5 3 3 3 2 2 5 4 7 3 2 4 4 2 2 2 4 3 4 4 4 3 4 4 4 4 3 4 4 5 4 3 1 2 3 4 4 3
12 14 14 15 13 12 12 12 12 12 13 12 11 13 15 15 13 14 13 13 13 13 12 12 13 12 12 11 11 9 9 9 8 8 9 7 7 5 6 3 7 6 14 11 6 4 4 5 4 6 4 4 4 5 5 6 7 5 2 2 2 3 4 3 2 4 2 2 3 4 4 3 3 3 2 3 5 4 4 4 5 5 3 2 2 2 3
14 16 16 15 13 14 13 12 12 13 14 12 12 14 14 14 13 12 13 13 13 13 13 12 11 11 11 11 11 10 9 9 9 8 8 8 5 2 5 6 7 7 7 6 5 5 5 3 4 3 9 7 6 4 6 7 8 4 3 3 4 4 5 4 6 7 3 4 3 3 2 4 4 3 2 3 4 4 3 3 4 4 4 4 5 5 5
12 13 14 14 13 12 13 12 13 13 14 16 14 13 12 11 12 13 13 13 14 13 13 12 12 11 11 10 10 8 8 8 8 8 7 6 5 3 3 2 3 8 7 5 5 5 5 4 5 10 11 8 4 4 5 7 4 2 3 3 4 4 4 1 6 7 4 5 1 3 1 0 4 4 3 3 4 5 3 2 3 3 2 3 3 3 4
14 14 13 13 14 13 13 13 14 15 13 13 13 14 13 12 11 12 13 13 13 13 12 12 12 12 11 10 9 9 8 8 7 7 7 7 8 6 7 4 7 6 6 6 4 5 0 7 11 11 9 6 2 4 6 7 5 4 4 2 3 4 3 2 3 5 1 4 1 1 3 5 3 3 3 1 4 5 3 5 5 4 3 5 3 3 3
12 10 11 14 15 14 13 14 13 13 14 14 14 14 15 14 14 12 11 13 13 13 12 12 12 12 11 10 10 9 8 7 7 7 5 2 3 3 9 6 6 4 8 6 5 3 7 12 13 10 9 6 4 6 7 4 3 3 2 4 3 1 3 3 2 3 2 2 2 3 3 3 4 3 6 7 7 5 3 3 4 7 5 7 8 6 5
8 6 9 11 12 13 14 14 14 15 15 14 13 12 12 14 14 12 12 13 12 12 11 11 11 10 10 11 9 9 8 7 5 5 4 5 7 8 9 9 12 14 8 5 4 5 8 8 9 9 8 5 7 6 8 6 3 4 3 2 1 3 1 2 1 1 2 1 2 3 2 3 3 2 2 2 3 4 4 0 5 3 4 2 3 4 4
9 9 8 8 10 13 14 14 15 14 14 13 12 12 13 13 13 12 12 12 12 12 11 11 10 10 10 10 9 7 7 6 6 5 4 4 6 8 7 7 7 9 7 6 7 10 14 12 11 8 5 5 7 6 7 5 3 3 2 3 3 2 3 4 3 1 1 2 3 5 5 5 4 1 1 4 5 3 3 2 6 5 4 5 5 6 6
12 12 12 12 12 14 13 13 14 13 12 13 13 12 13 14 13 13 13 13 14 12 11 11 11 11 9 9 7 6 5 4 3 5 6 5 6 6 6 9 12 10 7 5 6 6 10 11 10 7 5 7 6 9 4 1 2 2 3 3 4 2 2 2 1 1 0 2 2 1 2 1 2 3 3 3 3 4 3 3 4 3 6 5 5 6 7
8 9 8 5 6 6 7 10 12 11 11 13 12 13 13 13 12 12 12 12 11 11 11 10 9 9 8 7 6 5 5 5 3 6 7 6 7 6 7 8 8 10 10 5 7 7 10 12 10 8 6 6 6 5 2 4 4 4 3 2 1 3 2 5 5 3 3 2 2 1 1 2 6 3 4 2 5 6 4 4 6 2 5 4 4 5 5
8 9 9 9 8 8 10 10 8 2 8 11 13 13 13 12 12 12 11 12 12 11 10 10 9 8 8 7 7 7 7 6 6 7 7 7 6 8 7 7 8 8 6 6 6 7 7 6 6 7 7 7 6 5 4 4 4 4 2 3 4 3 5 3 2 4 6 3 5 7 6 5 5 5 4 4 5 5 5 5 6 6 6 6 5 5 6
7 7 7 8 8 9 9 9 7 6 8 8 5 6 10 11 12 11 11 13 11 10 10 11 9 8 7 8 8 7 7 7 8 8 7 7 7 7 7 9 7 7 7 5 5 6 7 6 7 8 7 7 6 4 3 1 4 3 4 3 2 2 2 2 4 5 3 3 4 5 5 5 5 5 5 6 5 5 6 6 7 7 6 6 7 6 6
Wind_Direction
258 273 231 301 262 237 225 141 253 300 272 260 272 263 252 253 237 218 182 165 155 190 130 102 84 78 76 70 60 49 70 81 79 81 85 86 94 106 93 93 96 87 77 81 87 92 90 88 69 60 79 138 151 180 174 152 186 191 189 187 225 233 226 218 216 228 177 144 200 230 259 280 288 323 24 175 281 322 318 282 245 238 235 244 246 228 227
263 267 270 156 348 314 246 202 147 215 216 226 192 233 269 250 224 112 161 101 113 120 107 109 91 81 82 85 72 70 67 64 63 66 64 63 66 74 77 77 79 75 71 67 63 64 61 58 60 59 58 79 211 180 177 189 193 183 204 198 213 219 228 219 223 209 170 162 168 251 282 268 235 212 239 286 336 295 67 325 303 283 258 256 255 252 241
173 233 220 191 156 252 311 269 233 249 202 223 155 149 233 307 275 112 151 106 98 106 119 109 104 93 87 83 72 67 60 61 63 62 62 61 60 60 66 76 75 78 81 81 74 63 52 41 38 38 18 14 350 338 332 193 194 193 216 235 237 239 241 223 165 235 215 183 200 196 194 257 267 262 242 253 231 234 274 228 212 323 316 289 286 279 270
260 261 226 233 202 148 204 272 295 272 221 219 126 66 86 251 245 136 137 105 171 155 137 108 105 100 84 77 74 76 75 76 70 68 64 61 60 58 63 66 71 75 75 73 72 75 73 62 40 27 11 351 340 332 311 274 249 219 217 212 227 237 232 239 168 246 227 189 203 187 200 226 226 218 214 216 216 220 199 254 314 139 82 17 343 348 349
232 196 254 221 228 212 191 206 234 258 351 7 17 24 130 135 239 122 198 190 159 160 135 123 112 104 88 77 67 76 79 78 80 78 71 69 65 68 63 62 65 64 66 65 63 60 57 55 51 25 8 344 339 330 319 314 297 247 232 232 239 240 239 253 238 213 221 217 206 205 202 233 244 218 207 221 222 218 198 142 17 100 147 139 207 245 325
294 187 205 214 219 234 224 169 199 249 304 315 235 183 70 110 87 199 47 208 153 155 143 137 129 109 98 88 76 73 86 89 86 81 79 75 77 74 69 66 63 63 60 60 53 49 46 42 38 36 3 341 314 274 275 288 301 291 264 248 248 255 261 258 263 273 263 228 212 210 212 208 214 215 204 206 221 220 191 134 147 131 118 71 61 44 76
267 230 206 220 256 278 55 146 224 228 240 252 272 335 244 116 137 130 151 152 160 144 130 133 122 115 110 98 88 92 90 90 91 92 87 83 75 69 72 69 62 56 58 58 57 56 48 40 39 34 35 25 346 3 304 236 237 268 275 277 322 349 323 313 320 287 262 205 229 212 196 205 226 231 244 239 217 192 172 148 150 147 138 141 134 116 97
253 254 260 258 352 154 182 154 173 38 272 252 261 242 266 218 138 145 147 153 145 130 132 131 124 120 114 103 97 98 103 102 99 98 95 94 89 83 70 71 64 59 57 58 59 64 69 67 64 55 62 63 63 70 59 60 57 52 51 49 38 7 327 324 312 315 283 266 233 242 223 216 221 214 212 218 240 36 70 73 79 101 109 123 132 109 111
271 266 266 265 49 178 197 197 204 214 217 199 214 231 211 62 209 152 143 137 141 140 143 137 131 130 122 103 98 104 111 114 104 93 92 91 96 104 92 82 79 73 66 66 77 87 71 65 57 57 64 66 65 62 56 55 57 54 55 49 44 43 44 47 42 30 9 341 268 239 237 229 212 176 164 118 74 65 105 129 120 95 99 82 44 47 66
233 268 266 258 207 240 118 320 10 248 194 293 161 201 294 282 251 125 153 149 151 147 142 151 154 152 131 116 109 122 121 116 113 108 104 103 96 86 87 94 93 86 77 75 69 77 92 67 59 59 60 63 64 65 65 68 67 68 65 63 62 60 58 52 49 43 50 54 52 50 35 68 76 50 58 67 108 126 135 134 97 74 92 90 71 47 58
243 243 269 265 277 49 198 117 251 135 271 194 111 235 198 217 225 157 166 157 155 157 160 155 165 180 175 129 126 133 126 119 115 114 107 98 95 97 89 85 70 64 60 45 63 93 87 74 77 68 70 72 79 79 77 75 76 76 75 75 72 72 69 70 69 71 69 71 75 75 66 37 68 117 108 91 54 69 65 66 86 84 74 85 88 78 81
261 274 255 263 284 119 168 220 240 178 136 213 237 243 159 202 192 143 153 154 162 163 163 169 185 259 347 158 135 157 144 129 114 106 108 110 112 111 105 96 104 106 98 82 64 56 67 75 83 84 80 73 68 76 82 84 82 82 86 91 97 87 80 73 71 75 83 88 81 80 83 72 44 49 54 56 76 76 69 60 70 68 68 66 74 69 56
235 224 257 273 174 96 167 181 184 173 221 290 246 257 89 184 105 145 155 150 158 161 161 141 159 100 147 120 132 133 123 127 123 116 113 99 97 98 97 97 96 93 87 80 78 85 84 75 71 69 75 81 80 74 74 73 74 76 77 77 72 74 78 78 76 69 70 81 90 95 90 95 101 72 72 82 88 89 87 83 79 75 72 64 56 52 48
258 243 255 263 35 75 33 121 253 99 234 224 299 88 54 82 128 130 188 160 137 148 193 134 143 120 116 120 130 126 113 100 87 90 101 108 100 90 87 90 94 97 100 100 94 80 75 88 92 88 78 73 77 76 75 76 79 78 77 74 72 72 71 76 78 75 75 75 79 79 80 80 77 74 80 80 80 82 84 84 82 79 75 73 72 67 63
250 260 251 260 263 129 276 102 198 103 263 115 205 103 127 139 153 134 177 151 136 169 142 95 124 125 130 134 132 127 132 133 128 118 111 105 108 113 117 114 108 104 96 89 82 81 79 69 67 79 84 81 79 80 78 77 77 77 73 74 80 94 100 94 92 85 78 77 77 79 79 79 80 83 84 83 83 84 85 83 84 87 86 90 89 82 68
254 234 239 223 26 44 94 209 307 81 91 127 143 177 122 136 137 174 182 140 151 181 141 137 131 133 131 127 126 134 126 127 128 124 116 111 112 114 106 103 99 96 95 90 86 81 76 79 79 76 81 82 79 76 73 66 71 72 74 79 81 74 62 59 66 81 91 84 81 77 76 75 78 78 76 74 74 77 86 88 91 88 90 91 93 97 97
265 296 332 124 264 317 139 341 101 101 105 112 105 101 133 134 132 19 178 140 149 143 126 130 144 136 136 131 148 141 134 141 135 132 129 123 116 107 100 92 93 100 99 99 98 91 85 80 75 75 74 77 77 74 70 66 63 64 64 64 64 68 75 84 83 72 65 71 81 91 100 96 90 88 92 94 94 101 105 103 105 106 109 111 105 107 117
245 314 299 105 191 228 85 157 68 131 143 143 129 157 141 120 148 219 212 161 158 147 128 128 144 143 150 147 148 133 144 135 122 119 119 118 118 117 115 111 104 99 91 89 95 101 105 101 94 86 80 74 75 78 79 76 73 66 65 67 68 67 67 64 68 85 92 84 74 71 68 66 74 86 104 109 116 124 109 106 107 107 103 103 102 112 115
292 223 157 232 198 182 211 151 133 105 152 157 160 175 164 174 155 156 196 153 170 164 144 152 147 149 151 154 136 119 116 121 133 134 129 124 116 109 107 114 119 110 108 102 90 81 71 72 86 88 84 96 105 108 100 92 79 73 80 83 77 77 77 77 68 54 50 59 73 70 67 93 99 89 65 61 69 73 83 75 79 69 72 61 46 71 70
217 319 159 176 77 341 194 189 154 193 150 150 175 122 125 148 140 143 172 148 171 160 163 141 147 151 170 140 127 132 134 134 125 118 116 114 111 107 108 104 99 99 96 93 90 84 79 71 62 66 74 68 58 52 61 67 71 59 42 41 67 72 76 74 78 93 90 80 69 66 50 41 35 32 52 62 62 43 26 14 28 72 63 44 32 29 40
205 195 243 138 187 210 217 214 208 142 146 143 135 134 137 153 144 145 157 146 155 200 168 157 159 167 154 140 152 145 139 135 132 126 122 118 116 116 108 100 98 99 99 98 99 95 91 86 79 70 56 52 65 66 52 49 45 51 52 58 65 91 92 90 72 51 75 87 85 85 85 72 55 39 20 29 57 73 46 29 7 0 22 85 65 63 45
231 226 204 188 224 204 190 207 172 138 141 154 140 148 154 156 155 152 167 157 170 175 150 157 156 151 147 159 157 144 141 138 131 131 128 126 120 115 113 113 108 105 102 99 95 93 87 83 81 78 72 61 45 46 45 44 34 42 31 36 39 32 24 23 40 66 75 74 80 102 99 94 94 81 64 55 30 41 72 45 43 26 27 58 10 29 71
246 237 206 177 240 295 222 179 152 147 153 150 154 159 154 155 157 165 164 158 160 146 150 158 156 146 154 150 146 142 140 134 139 137 136 131 130 128 124 120 114 107 105 102 102 100 100 100 95 88 80 74 67 54 40 33 27 27 9 9 40 104 63 44 23 16 47 73 74 62 76 93 100 104 104 68 59 53 47 41 34 38 56 52 40 30 27
268 300 261 158 211 246 182 150 135 151 154 153 155 150 147 153 156 162 163 159 150 144 156 155 148 152 151 147 150 142 138 144 139 142 143 140 131 128 127 125 122 120 115 110 106 100 100 99 91 92 89 82 80 83 65 48 31 20 12 5 8 14 44 76 77 55 67 62 81 97 104 122 124 125 118 115 94 51 53 40 34 39 39 38 36 42 38
263 221 240 195 179 234 141 130 154 151 155 158 152 146 153 149 154 157 150 147 149 154 156 152 144 153 150 155 146 141 147 141 146 139 137 135 143 150 146 137 133 128 122 119 120 114 114 111 104 93 92 93 75 77 89 62 45 39 15 13 7 23 84 49 46 38 88 100 90 94 124 139 146 166 151 144 135 133 102 79 69 51 38 34 42 45 48
254 233 221 167 183 202 136 155 157 155 160 154 142 141 138 146 140 150 146 151 153 156 155 148 149 151 159 153 140 145 145 142 132 136 146 148 148 150 131 127 125 122 117 113 104 102 95 83 80 78 65 65 62 24 28 67 41 49 32 15 35 19 18 11 33 13 27 3 61 117 101 338 106 174 212 99 128 136 155 161 158 134 119 50 24 43 77
234 215 183 170 203 177 167 186 158 166 159 152 147 142 146 137 146 151 147 154 152 156 154 153 152 152 158 147 147 149 147 137 147 161 154 153 148 140 134 133 123 119 112 97 94 94 100 99 89 73 51 39 31 15 8 31 2 327 8 334 126 127 100 325 300 194 236 221 191 192 175 190 212 230 51 346 249 198 192 201 179 173 169 162 140 15 26
248 203 182 208 196 184 176 182 153 164 159 153 148 152 144 149 159 153 157 156 157 152 154 157 154 158 153 149 154 146 142 154 160 154 153 147 139 132 118 113 114 112 105 114 105 91 82 80 78 76 61 27 19 6 6 7 339 319 327 303 261 242 159 202 249 239 46 53 335 317 331 332 274 294 198 201 209 215 200 240 275 216 197 155 137 115 90
246 209 201 219 193 188 181 160 157 168 162 152 158 158 155 163 162 162 160 161 156 152 157 152 150 156 156 157 156 155 159 159 152 152 140 126 122 119 124 130 127 115 112 106 102 106 106 97 90 85 91 80 36 11 340 345 316 337 324 313 308 309 284 3 18 304 344 10 358 16 336 291 285 266 265 253 262 286 277 218 253 288 276 143 142 146 216
220 210 208 209 201 187 180 167 172 172 168 160 166 166 166 170 165 166 160 159 160 160 157 151 157 162 164 163 158 164 166 154 145 137 130 130 125 121 109 102 100 109 111 100 85 82 87 96 100 83 44 41 69 36 348 318 319 333 309 300 285 293 7 24 349 326 292 280 285 133 233 242 231 242 267 276 274 286 304 290 248 256 260 181 206 210 181
319 295 226 206 206 193 183 174 174 178 170 166 171 170 169 175 168 162 163 163 166 164 160 161 164 163 165 162 158 160 150 136 138 136 129 124 121 118 125 138 137 123 104 96 98 93 90 105 86 72 38 344 9 8 344 329 334 322 272 264 234 97 68 66 335 305 304 283 255 249 272 265 287 284 287 294 292 290 270 275 277 253 260 245 227 236 244
192 252 265 222 222 192 188 176 179 180 175 174 177 180 176 179 176 168 168 173 173 168 167 168 167 166 163 157 151 147 145 139 142 136 133 132 128 128 115 94 84 90 103 114 116 99 111 99 121 75 6 13 339 342 348 1 354 315 324 343 309 179 109 268 245 231 254 261 278 276 284 291 281 288 291 287 291 286 285 278 273 280 280 292 290 298 333
241 204 224 243 225 206 191 182 185 182 181 182 184 184 180 185 179 173 175 179 173 172 173 173 169 163 160 157 149 147 144 143 140 138 138 137 136 134 127 119 118 116 122 125 120 125 103 64 54 55 27 349 353 354 3 357 346 322 344 339 326 327 207 179 55 312 282 270 257 259 271 275 291 307 316 321 306 296 301 299 294 290 288 279 304 62 67
214 230 220 210 218 210 195 188 188 186 186 188 186 184 184 183 174 171 168 173 178 177 176 170 165 161 157 152 151 152 150 149 150 149 145 144 142 138 136 129 134 135 119 123 152 167 130 98 38 22 349 338 16 347 17 325 337 308 355 331 330 327 313 292 173 226 243 253 267 292 301 313 312 297 293 299 300 299 307 311 308 308 310 308 291 104 80
227 237 234 232 228 229 209 191 194 192 188 189 187 186 181 177 171 175 166 178 177 177 173 167 162 161 157 156 155 157 159 159 155 151 151 149 146 144 140 143 133 143 131 131 96 120 80 62 71 4 340 1 357 307 5 4 336 323 333 309 301 290 319 289 292 290 316 316 326 308 294 288 311 333 324 293 270 269 272 276 289 293 287 291 295 87 104
229 236 234 224 217 233 225 199 194 190 191 190 187 182 177 176 174 171 167 179 171 172 170 165 162 161 159 160 163 164 163 161 155 155 154 155 151 154 151 150 163 174 166 183 182 112 114 109 74 26 329 320 315 354 20 1 327 315 335 329 291 297 287 315 324 326 314 319 300 308 280 15 346 291 278 288 299 305 300 300 284 285 297 308 310 301 203
223 219 223 220 211 213 220 211 223 201 190 189 187 177 172 173 175 166 166 172 169 170 168 169 167 168 165 164 166 163 163 159 157 162 157 159 157 160 166 174 176 202 197 214 196 158 176 103 106 46 292 286 333 341 80 59 325 320 309 267 241 228 257 287 285 279 305 278 249 262 299 284 251 242 245 285 283 298 316 303 296 287 288 301 303 298 276
240 247 232 223 210 195 197 207 218 184 187 205 192 173 170 170 169 164 171 168 166 165 164 165 168 163 160 165 165 163 166 164 160 163 159 163 162 167 174 194 184 208 223 239 133 147 113 110 123 274 265 286 343 309 76 48 341 304 278 271 318 320 278 260 272 267 249 301 1 350 313 300 302 286 294 286 293 308 320 318 321 321 313 297 293 311 316
263 267 264 237 213 200 199 194 200 191 190 195 182 173 169 168 163 164 168 167 163 158 162 164 162 161 164 168 170 168 170 171 168 168 165 172 169 184 185 206 174 47 69 107 134 142 114 116 277 245 261 313 325 298 41 23 324 290 289 315 308 298 293 294 289 325 320 330 296 333 330 301 308 309 301 304 313 324 323 332 325 311 303 307 306 296 298
229 241 238 219 204 192 204 194 188 189 183 194 182 169 165 163 166 166 164 162 158 159 165 163 163 167 167 174 173 173 173 173 168 167 166 172 172 190 225 163 116 124 113 90 80 90 107 125 224 243 243 200 235 257 120 224 269 263 265 243 274 284 295 14 301 264 259 235 212 185 250 259 289 324 314 297 292 290 299 296 298 309 311 324 314 328 327
207 216 229 227 196 192 201 168 181 181 179 180 171 164 165 165 164 164 163 161 157 166 168 167 169 170 170 177 177 179 171 173 169 174 170 168 178 201 238 235 140 128 144 118 70 104 134 190 228 247 190 186 210 312 273 171 231 241 253 307 269 263 289 276 315 301 285 301 304 282 265 278 273 257 287 312 306 303 301 297 283 296 329 331 334 349 349
205 210 205 212 209 193 193 188 182 182 171 161 167 169 172 167 164 163 160 158 161 169 168 170 170 171 173 179 181 175 174 176 174 172 180 176 192 220 241 123 127 113 107 110 128 139 180 201 208 248 255 183 156 118 302 288 273 289 299 261 307 298 263 266 236 232 239 249 267 269 279 272 268 268 261 277 288 305 321 321 308 301 309 337 306 321 325
219 209 200 208 200 179 178 170 168 169 162 167 178 171 168 164 159 156 158 162 165 168 169 170 167 168 174 181 184 176 179 175 181 171 178 182 187 18 338 112 127 118 140 144 180 204 200 177 206 136 66 58 61 43 281 264 261 255 210 193 199 225 257 281 317 353 342 272 269 302 305 292 284 281 287 290 304 303 307 311 296 304 323 348 2 341 325
223 215 215 195 180 168 165 163 166 166 166 168 174 159 153 151 150 158 160 166 170 170 170 170 172 174 176 178 175 176 176 174 183 179 189 168 136 144 270 277 134 133 157 163 202 226 222 192 123 99 96 93 83 322 292 284 282 267 265 284 304 312 285 213 202 213 279 332 324 277 227 237 266 285 299 307 354 339 299 278 304 302 318 311 314 329 332
218 230 202 181 169 164 163 167 165 163 165 157 159 158 161 157 154 166 164 168 169 166 167 167 170 174 178 173 174 177 177 182 190 183 201 203 207 192 160 136 124 152 159 207 223 224 248 96 108 112 106 104 116 275 274 255 229 225 284 270 189 222 251 232 298 317 153 248 265 307 331 312 336 305 278 223 163 228 305 9 19 8 306 257 265 304 303
194 207 209 182 170 173 166 157 153 157 157 154 155 160 163 161 161 162 167 166 158 165 164 165 169 174 172 168 173 171 170 180 192 190 223 301 335 111 141 182 189 157 142 188 227 203 108 116 116 121 123 129 216 242 244 259 341 293 164 238 266 44 268 340 48 292 26 318 339 329 9 312 290 10 28 358 8 352 35 11 297 266 316 2 2 10 351
168 179 227 204 177 167 153 150 145 148 149 151 154 158 160 161 159 162 165 153 153 157 162 167 169 169 169 166 162 158 163 164 148 155 148 116 104 104 108 98 105 116 157 180 238 193 128 132 128 131 130 167 242 257 263 254 206 240 242 279 145 226 291 68 206 146 184 115 7 351 328 325 341 338 102 177 231 285 325 341 257 287 304 287 305 264 252
165 179 224 224 187 164 149 145 149 154 156 156 153 153 158 157 155 147 145 147 149 148 153 151 150 149 146 147 150 162 166 166 167 166 173 164 156 133 155 172 161 160 145 80 63 88 113 120 122 131 143 224 244 247 250 239 179 197 198 166 234 177 196 182 190 171 76 99 201 204 192 174 211 222 1 323 342 301 257 8 308 297 297 314 335 351 345
173 177 185 199 183 162 151 153 157 158 159 153 148 148 150 145 140 140 143 140 140 142 144 141 136 137 140 144 149 155 152 156 212 167 159 170 158 159 166 130 129 148 176 189 172 151 133 133 140 147 184 247 249 254 239 164 241 202 206 196 197 175 190 180 153 37 45 132 182 190 278 353 251 230 282 289 241 252 314 307 275 345 34 358 326 317 321
167 160 156 156 158 163 155 163 165 164 151 149 146 144 143 140 141 144 145 150 148 144 140 139 139 139 139 143 154 137 123 139 140 132 150 151 151 143 136 153 157 181 201 207 162 133 142 149 157 167 200 220 243 255 194 227 172 208 197 176 237 180 94 51 53 22 326 329 342 24 329 266 285 48 88 237 259 286 301 296 293 89 91 320 313 295 293
159 151 129 122 111 92 57 13 356 68 143 142 143 145 147 150 145 146 150 149 144 144 144 142 142 146 145 147 140 132 139 148 140 145 150 152 154 143 161 157 161 180 203 241 188 158 163 185 184 180 202 231 237 217 206 202 205 171 210 184 199 220 145 169 224 201 212 229 306 315 324 320 315 316 287 287 285 293 298 295 290 291 284 294 293 288 279
122 127 126 113 107 106 104 120 129 100 82 76 80 144 158 149 144 148 145 147 150 147 146 144 145 149 153 146 142 145 155 149 149 152 150 149 153 154 150 150 161 173 191 206 186 171 167 170 165 181 203 212 223 199 136 122 247 190 189 209 208 217 239 245 229 240 219 131 176 234 255 271 274 268 269 275 279 279 277 278 280 281 283 286 286 286 284